Regional Weather Roundup
Issued by NWS San Angelo, TX

Home | Current Version | Previous Version | Text Only | Print | Product List | Glossary On
Versions: 1 2 3 4 5 6 7 8 9 10 11 12 13 14 15 16 17 18 19 20 21 22 23 24 25 26 27 28 29 30 31 32 33 34 35 36 37 38 39 40 41 42 43 44 45 46 47 48 49 50
000
ASUS44 KSJT 221610
RWRSJT
WEST CENTRAL TEXAS REGIONAL WEATHER ROUNDUP
NATIONAL WEATHER SERVICE SAN ANGELO TX
1000 AM CST WED FEB 22 2017

NOTE: "FAIR" INDICATES FEW OR NO CLOUDS BELOW 12,000 FEET WITH NO
SIGNIFICANT WEATHER AND/OR OBSTRUCTIONS TO VISIBILITY.

TXZ049-054-064>066-071>073-076>078-098-099-113-114-127-128-139-140-
154-155-168>170-221700
...LOCATIONS ACROSS WEST CENTRAL TEXAS...

CITY           SKY/WX    TMP DP  RH WIND       PRES   REMARKS
SAN ANGELO     SUNNY     68  42  38 W12       29.97F
ABILENE        SUNNY     70  38  31 W10       29.93S
DYESS AFB      SUNNY     72  41  32 NW12      29.92R
JUNCTION       SUNNY     62  46  55 W3        29.97F
SWEETWATER     SUNNY     64  38  38 SW12      29.99R
BROWNWOOD      SUNNY     61  43  51 SE6       29.94F
COLEMAN        SUNNY     63  48  57 E5        29.94S
SONORA         SUNNY     70  39  32 CALM      30.05S
OZONA          NOT AVBL
BRADY          NOT AVBL
$$

TEXAS PANHANDLE/OKLAHOMA PANHANDLE

CITY           SKY/WX    TMP DP  RH WIND       PRES   REMARKS
AMARILLO       SUNNY     70  30  22 W17       29.95R
BORGER         SUNNY     62  26  25 W9G18     29.92S
CANADIAN       SUNNY     61  33  35 N5        29.88S
DALHART        SUNNY     61  30  31 W8        29.95F
DUMAS          SUNNY     61  29  29 W16       29.93S
GUYMON         NOT AVBL
HEREFORD       SUNNY     65  39  38 W14       29.99F
PAMPA          SUNNY     66  27  22 W17       29.92S
PERRYTON       SUNNY     59  30  33 W8        29.87R
$$

SOUTHERN PANHANDLE/SOUTH PLAINS/ROLLING PLAINS

CITY           SKY/WX    TMP DP  RH WIND       PRES   REMARKS
LUBBOCK        PTSUNNY   68  37  32 NW17      29.97S
SNYDER         SUNNY     62  41  44 W9        29.97S
CHILDRESS      SUNNY     65  37  35 W8        29.88F
SEMINOLE       SUNNY     65  37  35 W7        30.04S
$$

PERMIAN BASIN

CITY           SKY/WX    TMP DP  RH WIND       PRES   REMARKS
MIDLAND        SUNNY     72  35  25 W13       30.02S
ODESSA         SUNNY     70  34  26 W10       30.04S
WINK           SUNNY     66  34  30 SW3       30.03S
$$

FAR WEST/SOUTHWEST MOUNTAINS/TRANS PECOS

CITY           SKY/WX    TMP DP  RH WIND       PRES   REMARKS
ALPINE         SUNNY     70  30  23 SW9       30.19S
DRYDEN           N/A     73  32  22 W14       30.03R
EL PASO        MOSUNNY   59  34  39 S9        30.11S
FORT STOCKTON  SUNNY     71  25  17 SW6       30.06R
GUADALUPE PASS SUNNY     51  32  48 SW16      30.14S
MARFA          SUNNY     62  32  32 S7        30.19R
PECOS          SUNNY     68  34  27 W12       30.05S
$$

DALLAS/FORT WORTH METROPLEX

CITY           SKY/WX    TMP DP  RH WIND       PRES   REMARKS
DFW AIRPORT    MOSUNNY   67  43  41 S7        29.89S
FTW MEACHAM    SUNNY     66  42  41 S8        29.90S
DAL-EXECUTIVE  SUNNY     69  45  41 S8        29.90F
GRAND PRAIRIE  SUNNY     64  43  45 CALM      29.93S
ADDISON        NOT AVBL
MESQUITE       SUNNY     63  46  55 CALM      29.93S
LANCASTER      SUNNY     64  51  61 CALM      29.93S
$$

NORTH CENTRAL TEXAS

CITY           SKY/WX    TMP DP  RH WIND       PRES   REMARKS
SHRMAN/DENISON SUNNY     68  47  47 S8        29.91S
GAINESVILLE    SUNNY     64  44  47 S10       29.91S
BRIDGEPORT     SUNNY     61  46  57 CALM      29.91S
DENTON         SUNNY     64  48  56 CALM      29.89F
WAXAHACHIE     SUNNY     67  45  46 S6        29.93S
GRANBURY       SUNNY     63  49  61 CALM      29.92S
$$

WESTERN NORTH TEXAS

CITY           SKY/WX    TMP DP  RH WIND       PRES   REMARKS
WICHITA FALLS  MOSUNNY   64  41  42 SW12      29.87S
VERNON         SUNNY     57  39  50 SW7       29.88S
BRECKENRIDGE   SUNNY     70  37  29 SW7       29.90F
COMANCHE       SUNNY     71  39  31 SW10      29.93F
$$

CENTRAL AND SOUTH CENTRAL TEXAS

CITY           SKY/WX    TMP DP  RH WIND       PRES   REMARKS
AUSTIN/BERGSTM SUNNY     72  42  34 CALM      29.95S
WACO           SUNNY     61  48  62 CALM      29.93S
HILLSBORO      SUNNY     61  48  63 CALM      29.93S
TEMPLE         SUNNY     66  50  56 S5        29.94F
KILLEEN-GRAY   SUNNY     70  39  31 S9        29.92F
FORT HOOD      SUNNY     71  39  31 S7        29.90F
GEORGETOWN     SUNNY     68  45  42 S5        29.94F
LAGO VISTA     FAIR      66  38  36 CALM      29.96F
SAN MARCOS     SUNNY     68  43  40 CALM      29.97S
NEW BRAUNFELS  SUNNY     71  43  36 CALM      29.95S
RANDOLPH AFB   SUNNY     71  37  28 SE3       29.96F
SAN ANTONIO    SUNNY     70  39  32 SE3       29.97F
STINSON        SUNNY     72  44  36 CALM      29.95F
PLEASANTON     NOT AVBL
LA GRANGE      SUNNY     67  48  49 CALM      29.93S
GIDDINGS       SUNNY     68  44  42 CALM      29.95S
$$

EAST TEXAS

CITY           SKY/WX    TMP DP  RH WIND       PRES   REMARKS
PARIS          SUNNY     64  55  72 SE8       29.91F
CLARKSVILLE    NOT AVBL
TYLER          SUNNY     66  53  63 E3        29.92F
LONGVIEW       MOSUNNY   65  58  78 CALM      29.92S
PALESTINE      SUNNY     65  54  68 CALM      29.94S
NACOGDOCHES    SUNNY     66  55  68 E3        29.92S
$$

TEXAS HILL COUNTRY AND EDWARDS PLATEAU

CITY           SKY/WX    TMP DP  RH WIND       PRES   REMARKS
LLANO          SUNNY     61  46  59 CALM      29.99F
HORSESHOE BAY  FAIR      63  49  60 NW3       29.96S
KERRVILLE      SUNNY     63  46  54 CALM      29.98S
FREDERICKSBRG  SUNNY     65  41  40 SW3       29.97F
ROCKSPRINGS    SUNNY     72  41  33 NW10      30.03S
HONDO          SUNNY     72  44  36 CALM      29.98S
UVALDE         SUNNY     69  44  40 CALM      29.99S
DEL RIO        SUNNY     68  45  43 W7        29.99S
$$

SOUTHEAST TEXAS

CITY           SKY/WX    TMP DP  RH WIND       PRES   REMARKS
COLLEGE STN    SUNNY     67  46  47 CALM      29.94S
CALDWELL       NOT AVBL
CROCKETT         N/A    N/A N/A N/A MISG        N/A
BRENHAM        SUNNY     68  50  51 CALM      29.95S
HUNTSVILLE     SUNNY     66  51  58 CALM      29.93F
CONROE         SUNNY     69  50  50 N3        29.93F
HOUSTON BUSH   SUNNY     70  52  52 N7        29.92F
HOUSTON HOBBY  SUNNY     72  49  44 N7        29.92F
PERLAND        SUNNY     71  50  47 N5        29.93F
WHARTON        SUNNY     68  49  51 CALM      29.95F
$$

THE UPPER TEXAS COAST

CITY           SKY/WX    TMP DP  RH WIND       PRES   REMARKS
ORANGE         SUNNY     67  57  71 N5        29.92F
PORT ARTHUR    SUNNY     70  56  61 N8        29.91F
GALVESTON      SUNNY     71  55  56 N7        29.93S
ANGLETON       SUNNY     74  52  46 N5        29.93F
BAY CITY       SUNNY     68  53  58 CALM      29.95R
$$

TEXAS COASTAL BEND, RIO GRANDE PLAINS DEEP SOUTH TEXAS

CITY           SKY/WX    TMP DP  RH WIND       PRES   REMARKS
VICTORIA       SUNNY     68  52  56 CALM      29.96S
BEEVILLE       FAIR      75  47  36 CALM      29.96S
ROCKPORT       SUNNY     72  47  40 VRB3      29.96R
PORT ARANSAS   SUNNY     69  55  59 CALM      29.96S
PORT LAVACA    SUNNY     67  54  63 N5        29.96S
CORPUS CHRISTI MOSUNNY   71  50  47 CALM      29.96R
KINGSVILLE NAS SUNNY     74  49  41 SW5       29.96S
COTULLA          N/A    N/A N/A N/A MISG      29.97S
LAREDO         SUNNY     72  36  26 W6        29.98S
BROWNSVILLE    SUNNY     79  47  32 VRB3      29.97R
PORT ISABEL    SUNNY     74  54  49 CALM      29.96S
HEBBRONVILLE   SUNNY     79  30  16 CALM      29.98S
MCALLEN        SUNNY     76  42  29 SW3       29.97S
WESLACO        SUNNY     76  45  32 W6        29.95S
FALFURRIAS     SUNNY    N/A N/A N/A CALM      29.96S
EDINBURG       SUNNY     81  40  22 CALM      29.96S
$$




USA.gov is the U.S. government's official web portal to all federal, state and local government web resources and services.